| time (UTC) | temp C | wind direction | speed KPH | gust KPH | rain 1hr cm | rain 24hr cm | rain mn cm | humidity % | barometer mb |
| 20260508071555 | 6 | 306 | 0.0 | 0.0 | 0.00 | 0.03 | 0.00 | 72 | 1006.2 |
| 20260508070049 | 6 | 305 | 0.0 | 0.0 | 0.00 | 0.03 | 0.00 | 70 | 1006.3 |
| 20260508064546 | 7 | 304 | 0.0 | 12.9 | 0.00 | 0.03 | 0.00 | 68 | 1006.6 |
| 20260508063045 | 7 | 291 | 12.9 | 16.1 | 0.00 | 0.05 | 0.00 | 69 | 1006.3 |
| 20260508061544 | 7 | 298 | 6.4 | 11.3 | 0.00 | 0.05 | 0.00 | 65 | 1006.4 |
| 20260508060043 | 7 | 305 | 3.2 | 9.7 | 0.00 | 0.05 | 0.00 | 64 | 1006.6 |
| 20260508054602 | 7 | 323 | 8.0 | 16.1 | 0.00 | 0.05 | 0.00 | 65 | 1006.5 |
| 20260508053042 | 7 | 304 | 11.3 | 17.7 | 0.00 | 0.25 | 0.00 | 66 | 1006.6 |
| 20260508051539 | 7 | 290 | 4.8 | 12.9 | 0.00 | 0.25 | 0.00 | 65 | 1006.9 |
| 20260508050008 | 7 | 296 | 8.0 | 11.3 | 0.00 | 0.25 | 0.00 | 76 | 1006.9 |
| 20260508044507 | 7 | 322 | 4.8 | 8.0 | 0.00 | 0.25 | 0.00 | 67 | 1007.1 |
| 20260508043036 | 7 | 311 | 4.8 | 9.7 | 0.00 | 0.51 | 0.00 | 70 | 1007.1 |
| 20260508041536 | 7 | 309 | 3.2 | 6.4 | 0.00 | 0.51 | 0.00 | 68 | 1007.1 |
| 20260508040029 | 8 | 304 | 1.6 | 6.4 | 0.00 | 0.51 | 0.00 | 64 | 1007.2 |
| 20260508034524 | 8 | 311 | 3.2 | 6.4 | 0.00 | 0.51 | 0.00 | 62 | 1007.1 |
| 20260508033026 | 8 | 345 | 3.2 | 8.0 | 0.00 | 0.51 | 0.00 | 60 | 1007.1 |
| 20260508031519 | 9 | 309 | 6.4 | 9.7 | 0.00 | 0.51 | 0.00 | 60 | 1007.3 |
| 20260508030018 | 9 | 320 | 3.2 | 9.7 | 0.00 | 0.51 | 0.00 | 58 | 1007.5 |
| 20260508024519 | 10 | 316 | 4.8 | 11.3 | 0.00 | 0.51 | 0.00 | 57 | 1007.2 |
| 20260508023029 | 10 | 314 | 6.4 | 12.9 | 0.00 | 0.51 | 0.00 | 56 | 1007.0 |
| 20260508021514 | 10 | 303 | 6.4 | 11.3 | 0.00 | 0.51 | 0.00 | 57 | 1006.9 |
| 20260508020013 | 10 | 286 | 1.6 | 12.9 | 0.00 | 0.51 | 0.00 | 55 | 1006.7 |
| 20260508014511 | 11 | 305 | 6.4 | 14.5 | 0.00 | 0.51 | 0.00 | 55 | 1006.7 |
| 20260508013009 | 11 | 309 | 8.0 | 14.5 | 0.00 | 0.64 | 0.00 | 55 | 1006.5 |
| 20260508011509 | 11 | 304 | 1.6 | 9.7 | 0.00 | 0.64 | 0.00 | 54 | 1006.5 |
| 20260508010013 | 12 | 295 | 8.0 | 19.3 | 0.00 | 0.64 | 0.00 | 50 | 1006.4 |
| 20260508004538 | 11 | 287 | 3.2 | 8.0 | 0.00 | 0.64 | 0.00 | 53 | 1006.1 |
| 20260508003036 | 12 | 326 | 0.0 | 6.4 | 0.00 | 0.69 | 0.00 | 52 | 1005.6 |
| 20260508001605 | 12 | 303 | 3.2 | 9.7 | 0.00 | 0.69 | 0.00 | 51 | 1005.5 |
| 20260508000004 | 13 | 311 | 4.8 | 17.7 | 0.00 | 0.69 | 0.00 | 50 | 1005.2 |
| 20260507234501 | 13 | 333 | 4.8 | 8.0 | 0.00 | 0.69 | 0.00 | 50 | 1005.2 |
| 20260507233002 | 14 | 288 | 4.8 | 12.9 | 0.00 | 1.02 | 0.00 | 49 | 1005.1 |
| 20260507231501 | 15 | 294 | 9.7 | 16.1 | 0.00 | 1.02 | 0.00 | 45 | 1004.8 |
| 20260507224605 | 15 | 301 | 9.7 | 17.7 | 0.00 | 1.02 | 0.00 | 44 | 1004.4 |
| 20260507223059 | 15 | 305 | 12.9 | 24.1 | 0.00 | 1.50 | 0.00 | 46 | 1004.3 |
| 20260507221556 | 15 | 309 | 14.5 | 24.1 | 0.00 | 1.50 | 0.00 | 47 | 1004.2 |
| 20260507220055 | 15 | 280 | 14.5 | 22.5 | 0.00 | 1.50 | 0.00 | 45 | 1004.0 |
| 20260507214532 | 15 | 299 | 16.1 | 25.7 | 0.00 | 1.50 | 0.00 | 45 | 1004.1 |
| 20260507213122 | 15 | 309 | 16.1 | 24.1 | 0.00 | 1.65 | 0.00 | 45 | 1004.0 |
| 20260507211517 | 14 | 321 | 9.7 | 16.1 | 0.00 | 1.65 | 0.00 | 66 | 1003.9 |
| 20260507210038 | 13 | 252 | 4.8 | 14.5 | 0.00 | 1.65 | 0.00 | 68 | 1003.9 |
| 20260507204514 | 13 | 154 | 11.3 | 17.7 | 0.00 | 1.65 | 0.00 | 70 | 1003.7 |
| 20260507203019 | 13 | 129 | 6.4 | 19.3 | 0.00 | 1.83 | 0.00 | 73 | 1003.6 |
| 20260507201541 | 12 | 146 | 8.0 | 19.3 | 0.00 | 1.83 | 0.00 | 76 | 1003.5 |
| 20260507200052 | 12 | 165 | 6.4 | 17.7 | 0.00 | 1.83 | 0.00 | 76 | 1003.6 |
| 20260507194508 | 12 | 176 | 12.9 | 20.9 | 0.00 | 1.83 | 0.00 | 76 | 1004.0 |
| 20260507193012 | 12 | 160 | 9.7 | 20.9 | 0.00 | 1.83 | 0.00 | 78 | 1004.2 |
| 20260507191513 | 12 | 208 | 12.9 | 24.1 | 0.00 | 1.83 | 0.00 | 76 | 1004.3 |
| 20260507190003 | 12 | 153 | 12.9 | 24.1 | 0.00 | 1.83 | 0.00 | 75 | 1004.5 |
| 20260507184502 | 12 | 167 | 11.3 | 22.5 | 0.00 | 1.83 | 0.00 | 70 | 1004.6 |
| 20260507183110 | 12 | 173 | 11.3 | 20.9 | 0.00 | 1.83 | 0.00 | 72 | 1004.8 |
| 20260507181556 | 12 | 148 | 11.3 | 22.5 | 0.00 | 1.83 | 0.00 | 75 | 1004.8 |
| 20260507180058 | 12 | 151 | 12.9 | 24.1 | 0.00 | 1.83 | 0.00 | 76 | 1004.8 |
| 20260507174601 | 12 | 244 | 9.7 | 20.9 | 0.00 | 1.83 | 0.00 | 77 | 1004.8 |
| 20260507173155 | 12 | 217 | 14.5 | 25.7 | 0.00 | 1.83 | 0.00 | 79 | 1004.9 |
| 20260507171551 | 12 | 156 | 14.5 | 20.9 | 0.00 | 1.83 | 0.00 | 80 | 1004.9 |
| 20260507170053 | 12 | 151 | 12.9 | 20.9 | 0.00 | 1.83 | 0.00 | 77 | 1004.8 |
| 20260507164556 | 13 | 155 | 11.3 | 20.9 | 0.00 | 1.83 | 0.00 | 76 | 1004.9 |
| 20260507163046 | 13 | 194 | 4.8 | 17.7 | 0.00 | 1.83 | 0.00 | 75 | 1005.2 |
| 20260507161552 | 13 | 176 | 4.8 | 14.5 | 0.00 | 1.83 | 0.00 | 75 | 1005.3 |
| 20260507160059 | 13 | 165 | 9.7 | 17.7 | 0.00 | 1.83 | 0.00 | 75 | 1005.4 |
| 20260507154542 | 13 | 152 | 1.6 | 12.9 | 0.00 | 1.83 | 0.00 | 73 | 1005.7 |
| 20260507153039 | 13 | 165 | 1.6 | 9.7 | 0.00 | 1.83 | 0.00 | 74 | 1005.8 |
| 20260507151533 | 12 | 303 | 1.6 | 8.0 | 0.00 | 1.83 | 0.00 | 74 | 1005.7 |
| 20260507150030 | 12 | 300 | 1.6 | 4.8 | 0.00 | 1.83 | 0.00 | 76 | 1005.7 |
| 20260507144541 | 12 | 310 | 1.6 | 4.8 | 0.00 | 1.83 | 0.00 | 76 | 1005.9 |
| 20260507143024 | 11 | 314 | 3.2 | 9.7 | 0.00 | 1.83 | 0.00 | 78 | 1006.0 |
| 20260507141523 | 11 | 310 | 3.2 | 8.0 | 0.00 | 1.83 | 0.00 | 80 | 1006.3 |
| 20260507140014 | 11 | 258 | 4.8 | 9.7 | 0.00 | 1.83 | 0.00 | 80 | 1006.4 |
| 20260507134513 | 10 | 299 | 0.0 | 6.4 | 0.00 | 1.83 | 0.00 | 81 | 1006.3 |
| 20260507133013 | 10 | 301 | 4.8 | 9.7 | 0.00 | 1.83 | 0.00 | 82 | 1006.3 |
| 20260507131505 | 10 | 291 | 4.8 | 12.9 | 0.00 | 1.83 | 0.00 | 83 | 1006.6 |
| 20260507130008 | 10 | 304 | 6.4 | 11.3 | 0.00 | 1.83 | 0.00 | 84 | 1006.9 |
| 20260507124606 | 9 | 304 | 6.4 | 14.5 | 0.00 | 1.83 | 0.00 | 84 | 1006.9 |
| 20260507123055 | 8 | 288 | 9.7 | 14.5 | 0.00 | 1.83 | 1.83 | 85 | 1006.7 |
| 20260507121557 | 8 | 321 | 9.7 | 19.3 | 0.00 | 1.83 | 1.83 | 86 | 1006.8 |
| 20260507120050 | 8 | 301 | 8.0 | 17.7 | 0.00 | 1.83 | 1.83 | 88 | 1006.6 |
| 20260507114553 | 8 | 323 | 4.8 | 8.0 | 0.00 | 1.83 | 1.83 | 94 | 1006.6 |
| 20260507113050 | 8 | 292 | 0.0 | 0.0 | 0.00 | 1.83 | 1.83 | 97 | 1006.6 |
| 20260507111557 | 8 | 293 | 0.0 | 1.6 | 0.00 | 1.83 | 1.83 | 98 | 1007.0 |
| 20260507110043 | 8 | 293 | 0.0 | 0.0 | 0.00 | 1.83 | 1.83 | 98 | 1006.7 |
| 20260507104541 | -17 | 0.0 | 0.0 | 0.00 | 1.83 | 1.83 | 1007.1 | ||
| 20260507103037 | -17 | 0.0 | 0.0 | 0.00 | 1.83 | 1.83 | 1007.2 | ||
| 20260507101532 | -17 | 0.0 | 0.0 | 0.00 | 1.83 | 1.83 | 1006.6 | ||
| 20260507100025 | -17 | 0.0 | 0.0 | 0.03 | 1.83 | 1.83 | 1006.1 | ||
| 20260507094524 | -17 | 0.0 | 0.0 | 0.03 | 1.83 | 1.83 | 1006.2 | ||
| 20260507093017 | -17 | 0.0 | 0.0 | 0.03 | 1.83 | 1.83 | 1005.7 | ||
| 20260507091513 | -17 | 314 | 3.2 | 14.5 | 0.03 | 1.83 | 1.83 | 1006.3 | |
| 20260507090113 | 8 | 314 | 4.8 | 16.1 | 0.00 | 1.80 | 1.80 | 96 | 1006.2 |
| 20260507084601 | 8 | 307 | 4.8 | 11.3 | 0.00 | 1.80 | 1.80 | 96 | 1006.3 |
| 20260507083057 | 8 | 323 | 4.8 | 11.3 | 0.00 | 1.80 | 1.80 | 97 | 1005.8 |
| 20260507081555 | 9 | 305 | 6.4 | 14.5 | 0.00 | 1.80 | 1.80 | 97 | 1005.9 |
| 20260507080054 | 9 | 279 | 8.0 | 16.1 | 0.00 | 1.80 | 1.80 | 98 | 1005.9 |
| 20260507074558 | 9 | 311 | 6.4 | 16.1 | 0.00 | 1.80 | 1.80 | 99 | 1005.9 |
| 20260507073052 | 9 | 300 | 8.0 | 11.3 | 0.00 | 1.80 | 1.80 | 99 | 1005.6 |